Russellville, AR

11:50 PM CDT on October 23, 2019 (GMT -0500)
Russellville Regional

Weather History for KRUE - August, 2019

Change the Weather History Date:

Wednesday, August 7, 2019

  Actual Average (KHOT) Record (KHOT)
Temperature  
Mean Temperature 84 °F -  
Max Temperature 96 °F 92 °F 108 °F (1954)
Min Temperature 73 °F 68 °F 60 °F (1948)
Cooling Degree Days 19    
Growing Degree Days 34 (Base 50)    
Moisture  
Dew Point 72 °F    
Average Humidity 77    
Maximum Humidity 94    
Minimum Humidity 54    
Precipitation  
Precipitation 0.00 in - - ()
Sea Level Pressure  
Sea Level Pressure 29.87 in    
Wind  
Wind Speed 2 mph ()    
Max Wind Speed 12 mph    
Max Gust Speed 37 mph    
Visibility 8.4 miles    
Events Thunderstorm    
Averages and records for this station are not official NWS values.
T = Trace of Precipitation, MM = Missing Value Source: Averaged Metar Reports

Daily Weather History Graph

Daily Weather History Graph

Search for Another Location

Airport or City:

Astronomy

Aug. 07, 2019 Rise Set
Actual Time 6:25 AM CDT 8:10 PM CDT
Civil Twilight 5:58 AM CDT 8:37 PM CDT
Nautical Twilight 5:24 AM CDT 9:10 PM CDT
Astronomical Twilight 4:49 AM CDT 9:45 PM CDT
Moon 1:41 PM CDT (8/7) 12:11 AM CDT (8/7)
Length of Visible Light 14h 39m
Length of Day
13h 44m
Waxing Crescent, 50% of the Moon is Illuminated
Aug 7
Waxing Crescent
Aug 7
First Quarter
Aug 15
Full
Aug 23
Last Quarter
Aug 30
New

Hourly Weather History & Observations

Time (CDT) Temp. Heat Index Dew Point Humidity Pressure Visibility Wind Dir Wind Speed Gust Speed Precip Events Conditions
12:53 AM 77.0 °F - 73.9 °F 90% 29.86 in 9.0 mi Calm Calm - N/A   Clear
1:53 AM 75.9 °F - 73.9 °F 94% 29.86 in 8.0 mi Calm Calm - N/A   Clear
2:53 AM 75.9 °F - 73.0 °F 91% 29.85 in 8.0 mi Calm Calm - N/A   Clear
3:53 AM 75.0 °F - 73.0 °F 94% 29.86 in 6.0 mi Calm Calm - N/A   Clear
4:53 AM 75.0 °F - 72.0 °F 90% 29.87 in 5.0 mi Calm Calm - N/A   Clear
5:53 AM 73.9 °F - 72.0 °F 93% 29.87 in 4.0 mi Calm Calm - N/A   Clear
6:53 AM 73.9 °F - 72.0 °F 93% 29.88 in 4.0 mi Calm Calm - N/A   Clear
7:53 AM 79.0 °F - 73.9 °F 84% 29.88 in 6.0 mi Calm Calm - N/A   Haze
8:53 AM 81.0 °F 86.7 °F 75.0 °F 82% 29.90 in 7.0 mi Calm Calm - N/A   Clear
9:53 AM 84.9 °F 93.3 °F 75.0 °F 72% 29.90 in 9.0 mi Calm Calm - N/A   Clear
10:53 AM 87.1 °F 97.3 °F 75.9 °F 69% 29.89 in 7.0 mi Calm Calm - N/A   Clear
11:53 AM 90.0 °F 101.3 °F 75.9 °F 63% 29.90 in 9.0 mi SSW 4.6 mph - N/A   Clear
12:53 PM 93.0 °F 105.3 °F 75.9 °F 57% 29.88 in 10.0 mi Variable 6.9 mph - N/A   Partly Cloudy
1:53 PM 95.0 °F 108.2 °F 75.9 °F 54% 29.86 in 10.0 mi Calm Calm - N/A   Partly Cloudy
3:53 PM 91.9 °F 101.3 °F 73.9 °F 55% 29.86 in 10.0 mi North 5.8 mph - N/A   Scattered Clouds
4:31 PM 82.9 °F 86.5 °F 69.1 °F 63% 29.90 in 9.0 mi NNE 11.5 mph 36.8 mph N/A Thunderstorm Mostly Cloudy
4:46 PM 82.9 °F 85.8 °F 68.0 °F 60% 29.89 in 10.0 mi North 5.8 mph - N/A   Scattered Clouds
4:53 PM 82.9 °F 85.8 °F 68.0 °F 60% 29.86 in 10.0 mi NNW 8.1 mph - N/A   Partly Cloudy
5:53 PM 81.0 °F 84.1 °F 69.1 °F 67% 29.85 in 10.0 mi NNW 10.4 mph - N/A   Clear
6:53 PM 81.0 °F 84.4 °F 70.0 °F 69% 29.85 in 10.0 mi ENE 5.8 mph - N/A   Clear
7:53 PM 79.0 °F - 70.0 °F 74% 29.85 in 10.0 mi ENE 5.8 mph - N/A   Clear
8:53 PM 75.9 °F - 70.0 °F 82% 29.86 in 10.0 mi Calm Calm - N/A   Clear
9:53 PM 75.9 °F - 70.0 °F 82% 29.87 in 10.0 mi Calm Calm - N/A   Clear
10:53 PM 75.0 °F - 71.1 °F 87% 29.88 in 10.0 mi Calm Calm - N/A   Clear
11:53 PM 73.9 °F - 71.1 °F 91% 29.87 in 10.0 mi East 3.5 mph - N/A   Clear